Selinsgrove, PA

9:57 PM EDT on May 25, 2017 (GMT -0400)
Penn Valley

Weather History for KSEG - April, 2013

Change the Weather History Date:

Wednesday, April 17, 2013

  Actual Average (KIPT) Record (KIPT)
Temperature  
Mean Temperature 58 °F -  
Max Temperature 68 °F 60 °F 91 °F (2002)
Min Temperature 48 °F 38 °F 25 °F (1904)
Degree Days  
Heating Degree Days 7    
Growing Degree Days 8 (Base 50)    
Moisture  
Dew Point 48 °F    
Average Humidity 74    
Maximum Humidity 100    
Minimum Humidity 28    
Precipitation  
Precipitation 0.21 in - - ()
Sea Level Pressure  
Sea Level Pressure 30.20 in    
Wind  
Wind Speed 3 mph (NNE)    
Max Wind Speed 14 mph    
Max Gust Speed -    
Visibility 7 miles    
Events Fog , Rain    
Averages and records for this station are not official NWS values.
T = Trace of Precipitation, MM = Missing Value Source: NWS Daily Summary

Daily Weather History Graph

Daily Weather History Graph

Search for Another Location

Airport or City:

Trip Planner

Search our weather history database for the weather conditions in past years. The results will help you decide how hot, cold, wet, or windy it might be!

Date:

Astronomy

Apr. 17, 2013 Rise Set
Actual Time 6:25 AM EDT 7:49 PM EDT
Civil Twilight 5:56 AM EDT 8:18 PM EDT
Nautical Twilight 5:22 AM EDT 8:52 PM EDT
Astronomical Twilight 4:46 AM EDT 9:28 PM EDT
Moon 11:36 AM EDT (4/17) 1:26 AM EDT (4/17)
Length of Visible Light 14h 21m
Length of Day
13h 24m
Waxing Crescent, 42% of the Moon is Illuminated
Apr 17
Waxing Crescent
Apr 18
First Quarter
Apr 25
Full
May 2
Last Quarter
May 9
New

Hourly Weather History & Observations

Time (EDT) Temp. Dew Point Humidity Pressure Visibility Wind Dir Wind Speed Gust Speed Precip Events Conditions
12:32 AM 60.8 °F 60.8 °F 100% 30.15 in 1.8 mi Calm Calm - 0.10 in Rain Heavy Rain
12:44 AM 60.8 °F 60.8 °F 100% 30.16 in 1.8 mi Calm Calm - 0.16 in Rain Heavy Rain
12:53 AM 61.0 °F 60.1 °F 97% 30.16 in 3.0 mi Calm Calm - 0.18 in Rain Light Rain
1:11 AM 60.8 °F 60.8 °F 100% 30.16 in 2.5 mi Calm Calm - 0.01 in Rain Light Rain
1:36 AM 60.8 °F 59.0 °F 94% 30.15 in 1.0 mi Calm Calm - 0.02 in Rain Light Rain
1:53 AM 60.1 °F 59.0 °F 96% 30.14 in 1.8 mi Calm Calm - 0.03 in Rain Light Rain
2:11 AM 60.8 °F 59.0 °F 94% 30.14 in 1.0 mi Calm Calm - 0.00 in Rain Light Rain
2:22 AM 59.0 °F 59.0 °F 100% 30.14 in 0.5 mi Calm Calm - 0.00 in Fog Fog
2:41 AM 59.0 °F 59.0 °F 100% 30.14 in 1.0 mi Calm Calm - 0.00 in   Overcast
2:45 AM 59.0 °F 59.0 °F 100% 30.13 in 1.8 mi Calm Calm - 0.00 in   Overcast
2:53 AM 59.0 °F 57.9 °F 96% 30.13 in 1.0 mi Calm Calm - 0.00 in   Overcast
3:00 AM 59.0 °F 57.2 °F 94% 30.13 in 1.0 mi Calm Calm - N/A   Mostly Cloudy
3:13 AM 59.0 °F 57.2 °F 94% 30.14 in 0.5 mi NNW 3.5 mph - N/A Fog Fog
3:25 AM 59.0 °F 57.2 °F 94% 30.13 in 1.2 mi NNE 8.1 mph - N/A   Overcast
3:29 AM 59.0 °F 57.2 °F 94% 30.13 in 3.0 mi NNE 9.2 mph - N/A   Overcast
3:53 AM 57.9 °F 54.0 °F 87% 30.14 in 10.0 mi North 9.2 mph - N/A   Overcast
4:53 AM 55.0 °F 48.9 °F 80% 30.18 in 10.0 mi North 6.9 mph - N/A   Overcast
5:53 AM 53.1 °F 46.9 °F 80% 30.19 in 10.0 mi NNE 8.1 mph - N/A   Mostly Cloudy
6:10 AM 53.6 °F 46.4 °F 77% 30.21 in 10.0 mi NNE 8.1 mph - N/A   Mostly Cloudy
6:38 AM 53.6 °F 46.4 °F 77% 30.23 in 10.0 mi North 10.4 mph - N/A   Overcast
6:53 AM 53.1 °F 46.0 °F 77% 30.25 in 10.0 mi NNE 13.8 mph - N/A   Overcast
7:53 AM 50.0 °F 41.0 °F 71% 30.28 in 10.0 mi NE 9.2 mph - N/A   Overcast
8:53 AM 48.9 °F 37.0 °F 64% 30.30 in 10.0 mi NNE 13.8 mph - N/A   Overcast
10:53 AM 55.9 °F 39.0 °F 53% 30.29 in 10.0 mi North 9.2 mph - N/A   Clear
11:53 AM 57.9 °F 39.0 °F 49% 30.27 in 10.0 mi NNE 9.2 mph - N/A   Clear
12:53 PM 61.0 °F 39.9 °F 46% 30.27 in 10.0 mi North 10.4 mph - N/A   Clear
1:53 PM 63.0 °F 37.9 °F 40% 30.25 in 10.0 mi NNE 3.5 mph - N/A   Clear
2:53 PM 64.9 °F 37.0 °F 36% 30.24 in 10.0 mi Variable 4.6 mph - N/A   Clear
3:53 PM 66.9 °F 36.0 °F 32% 30.22 in 10.0 mi ENE 5.8 mph - N/A   Clear
4:53 PM 68.0 °F 35.1 °F 30% 30.22 in 10.0 mi Variable 3.5 mph - N/A   Clear
5:53 PM 68.0 °F 34.0 °F 28% 30.22 in 10.0 mi NNE 5.8 mph - N/A   Clear
6:53 PM 64.9 °F 37.0 °F 36% 30.22 in 10.0 mi NE 5.8 mph - N/A   Clear
7:53 PM 61.0 °F 37.9 °F 42% 30.22 in 10.0 mi Calm Calm - N/A   Clear
8:53 PM 53.1 °F 44.1 °F 71% 30.23 in 10.0 mi Calm Calm - N/A   Clear
9:53 PM 52.0 °F 41.0 °F 66% 30.25 in 10.0 mi Calm Calm - N/A   Clear
10:53 PM 50.0 °F 42.1 °F 74% 30.25 in 10.0 mi NW 3.5 mph - N/A   Clear
11:53 PM 48.0 °F 44.1 °F 86% 30.25 in 10.0 mi Calm Calm - N/A   Partly Cloudy